This is the latest recevied weather packets stored in our database for station/object DJ2KUA-6. If no packets are shown the sender has not sent any weather packets the latest 10 day(s).
| Time | Temp. | Humidity | Pressure | Rain* | Wind** | Luminosity | Snow |
|---|---|---|---|---|---|---|---|
| 1777225359 | 17.78° C | 36% | 1073 hPa | 0 mm | - | - | - |
| 1777224216 | 18.33° C | 36% | 1073 hPa | 0 mm | - | - | - |
| 1777223079 | 18.89° C | 36% | 1074 hPa | 0 mm | - | - | - |
| 1777221939 | 19.44° C | 38% | 1074 hPa | 0 mm | - | - | - |
| 1777220798 | 20° C | 38% | 1074 hPa | 0 mm | - | - | - |
| 1777219658 | 20.56° C | 37% | 1074 hPa | 0 mm | - | - | - |
| 1777218518 | 20.56° C | 34% | 1074 hPa | 0 mm | - | - | - |
| 1777217377 | 20.56° C | 33% | 1074 hPa | 0 mm | - | - | - |
| 1777216235 | 20.56° C | 34% | 1074 hPa | 0 mm | - | - | - |
| 1777215096 | 21.11° C | 34% | 1074 hPa | 0 mm | - | - | - |
| 1777213959 | 21.11° C | 34% | 1074 hPa | 0 mm | - | - | - |
| 1777212815 | 22.22° C | 34% | 1074 hPa | 0 mm | - | - | - |
| 1777211678 | 22.22° C | 36% | 1074 hPa | 0 mm | - | - | - |
| 1777210539 | 21.11° C | 37% | 1074 hPa | 0 mm | - | - | - |
| 1777209398 | 21.11° C | 39% | 1074 hPa | 0 mm | - | - | - |
| 1777205977 | 20° C | 41% | 1075 hPa | 0 mm | - | - | - |
| 1777204840 | 18.89° C | 42% | 1075 hPa | 0 mm | - | - | - |
| 1777203699 | 18.33° C | 43% | 1075 hPa | 0 mm | - | - | - |
| 1777202558 | 17.22° C | 43% | 1075 hPa | 0 mm | - | - | - |
| 1777199138 | 17.78° C | 43% | 1076 hPa | 0 mm | - | - | - |
| 1777197999 | 17.78° C | 43% | 1076 hPa | 0 mm | - | - | - |
| 1777196860 | 17.78° C | 45% | 1076 hPa | 0 mm | - | - | - |
| 1777195719 | 17.22° C | 46% | 1076 hPa | 0 mm | - | - | - |
| 1777193436 | 16.11° C | 50% | 1076 hPa | 0 mm | - | - | - |
| 1777192297 | 15° C | 53% | 1076 hPa | 0 mm | - | - | - |
* Rain latest hour (hover to see other rain measurements)
** Current wind speed in m/s (hover to see current wind gust speed)